Date,TemperatureHighF,TemperatureAvgF,TemperatureLowF,DewpointHighF,DewpointAvgF,DewpointLowF,HumidityHigh,HumidityAvg,HumidityLow,PressureMaxIn,PressureMinIn,WindSpeedMaxMPH,WindSpeedAvgMPH,GustSpeedMaxMPH,PrecipitationSumIn
2014-1-1,0.0,0.0,0.0,0.0,0.0,0.0,0,0,100,30.44,30.36,0,0,0,0.00
2014-1-2,0.0,0.0,0.0,0.0,0.0,0.0,0,0,100,30.45,30.10,0,0,0,0.00
2014-1-3,0.0,0.0,0.0,0.0,0.0,0.0,0,0,100,30.09,29.40,0,0,0,0.00
2014-1-4,0.0,0.0,0.0,0.0,0.0,0.0,0,0,100,30.28,29.66,0,0,0,0.00
2014-1-5,0.0,0.0,0.0,0.0,0.0,0.0,0,0,100,30.42,30.27,0,0,0,0.00
2014-1-6,0.0,0.0,0.0,0.0,0.0,0.0,0,0,100,30.37,30.10,0,0,0,0.00
2014-1-7,0.0,0.0,0.0,0.0,0.0,0.0,0,0,100,30.26,30.08,0,0,0,0.00
2014-1-8,0.0,0.0,0.0,0.0,0.0,0.0,0,0,100,30.38,30.14,0,0,0,0.00
2014-1-9,0.0,0.0,0.0,0.0,0.0,0.0,0,0,100,30.14,29.70,0,0,0,0.00
2014-1-10,0.0,0.0,0.0,0.0,0.0,0.0,0,0,100,29.70,29.55,0,0,0,0.00
2014-1-11,0.0,0.0,0.0,0.0,0.0,0.0,0,0,100,29.72,29.48,0,0,0,0.00
2014-1-12,0.0,0.0,0.0,0.0,0.0,0.0,0,0,100,29.66,29.38,0,0,0,0.00
2014-1-13,0.0,0.0,0.0,0.0,0.0,0.0,0,0,100,29.73,29.60,0,0,0,0.00
2014-1-14,0.0,0.0,0.0,0.0,0.0,0.0,0,0,100,30.18,29.67,0,0,0,0.00
2014-1-15,0.0,0.0,0.0,0.0,0.0,0.0,0,0,100,30.15,29.45,0,0,0,0.00
2014-1-16,0.0,0.0,0.0,0.0,0.0,0.0,0,0,100,30.12,29.45,0,0,0,0.00
2014-1-17,0.0,0.0,0.0,0.0,0.0,0.0,0,0,100,30.12,29.55,0,0,0,0.00
2014-1-18,0.0,0.0,0.0,0.0,0.0,0.0,0,0,100,29.99,29.52,0,0,0,0.00
2014-1-19,0.0,0.0,0.0,0.0,0.0,0.0,0,0,100,29.84,29.58,0,0,0,0.00
2014-1-20,0.0,0.0,0.0,0.0,0.0,0.0,0,0,100,30.48,29.84,0,0,0,0.00
2014-1-21,0.0,0.0,0.0,0.0,0.0,0.0,0,0,100,30.45,30.01,0,0,0,0.00
2014-1-22,0.0,0.0,0.0,0.0,0.0,0.0,0,0,100,30.56,30.03,0,0,0,0.00
2014-1-23,0.0,0.0,0.0,0.0,0.0,0.0,0,0,100,30.62,29.86,0,0,0,0.00
2014-1-24,0.0,0.0,0.0,0.0,0.0,0.0,0,0,100,29.88,29.60,0,0,0,0.00
2014-1-25,0.0,0.0,0.0,0.0,0.0,0.0,0,0,100,30.04,29.54,0,0,0,0.00
2014-1-26,0.0,0.0,0.0,0.0,0.0,0.0,0,0,100,30.24,29.53,0,0,0,0.00
2014-1-27,0.0,0.0,0.0,0.0,0.0,0.0,0,0,100,30.40,30.24,0,0,0,0.00
2014-1-28,0.0,0.0,0.0,0.0,0.0,0.0,0,0,100,30.32,30.00,0,0,0,0.00
2014-1-29,0.0,0.0,0.0,0.0,0.0,0.0,0,0,100,30.00,29.60,0,0,0,0.00
2014-1-30,0.0,0.0,0.0,0.0,0.0,0.0,0,0,100,30.03,29.67,0,0,0,0.00
2014-1-31,0.0,0.0,0.0,0.0,0.0,0.0,0,0,100,30.05,29.86,0,0,0,0.00
2014-2-1,0.0,0.0,0.0,0.0,0.0,0.0,0,0,100,30.17,29.85,0,0,0,0.00
2014-2-2,0.0,0.0,0.0,0.0,0.0,0.0,0,0,100,30.16,30.06,0,0,0,0.00
2014-2-3,0.0,0.0,0.0,0.0,0.0,0.0,0,0,100,30.36,30.09,0,0,0,0.00
2014-2-4,0.0,0.0,0.0,0.0,0.0,0.0,0,0,100,30.49,30.36,0,0,0,0.00
2014-2-5,0.0,0.0,0.0,0.0,0.0,0.0,0,0,100,30.53,30.41,0,0,0,0.00
2014-2-6,0.0,0.0,0.0,0.0,0.0,0.0,0,0,100,30.41,30.09,0,0,0,0.00
2014-2-7,0.0,0.0,0.0,0.0,0.0,0.0,0,0,100,30.09,30.02,0,0,0,0.00
2014-2-8,0.0,0.0,0.0,0.0,0.0,0.0,0,0,100,30.27,30.05,0,0,0,0.00
2014-2-9,0.0,0.0,0.0,0.0,0.0,0.0,0,0,100,30.37,30.26,0,0,0,0.00
2014-2-10,0.0,0.0,0.0,0.0,0.0,0.0,0,0,100,30.42,30.30,0,0,0,0.00
2014-2-11,0.0,0.0,0.0,0.0,0.0,0.0,0,0,100,30.31,29.85,0,0,0,0.00
2014-2-12,0.0,0.0,0.0,0.0,0.0,0.0,0,0,100,30.16,29.50,0,0,0,0.00
2014-2-13,0.0,0.0,0.0,0.0,0.0,0.0,0,0,100,29.91,29.42,0,0,0,0.00
2014-2-14,0.0,0.0,0.0,0.0,0.0,0.0,0,0,100,30.10,29.89,0,0,0,0.00
2014-2-15,0.0,0.0,0.0,0.0,0.0,0.0,0,0,100,30.16,29.75,0,0,0,0.00
2014-2-16,0.0,0.0,0.0,0.0,0.0,0.0,0,0,100,30.15,29.80,0,0,0,0.00
2014-2-17,0.0,0.0,0.0,0.0,0.0,0.0,0,0,100,29.79,29.59,0,0,0,0.00
2014-2-18,0.0,0.0,0.0,0.0,0.0,0.0,0,0,100,29.77,29.56,0,0,0,0.00
2014-2-19,0.0,0.0,0.0,0.0,0.0,0.0,0,0,100,29.78,29.55,0,0,0,0.00
2014-2-20,0.0,0.0,0.0,0.0,0.0,0.0,0,0,100,29.73,29.57,0,0,0,0.00
2014-2-23,0.0,0.0,0.0,0.0,0.0,0.0,0,0,100,30.28,30.28,0,0,0,0.00
2014-2-24,0.0,0.0,0.0,0.0,0.0,0.0,0,0,100,30.33,30.28,0,0,0,0.00
2014-2-25,0.0,0.0,0.0,0.0,0.0,0.0,0,0,100,30.36,30.27,0,0,0,0.00
2014-2-26,0.0,0.0,0.0,0.0,0.0,0.0,0,0,100,30.25,29.78,0,0,0,0.00
2014-2-27,0.0,0.0,0.0,0.0,0.0,0.0,0,0,100,30.19,29.90,0,0,0,0.00
2014-2-28,0.0,0.0,0.0,0.0,0.0,0.0,0,0,100,30.30,29.81,0,0,0,0.00
2014-3-1,0.0,0.0,0.0,0.0,0.0,0.0,0,0,100,30.49,30.30,0,0,0,0.00
2014-3-2,0.0,0.0,0.0,0.0,0.0,0.0,0,0,100,30.50,30.42,0,0,0,0.00
2014-3-3,0.0,0.0,0.0,0.0,0.0,0.0,0,0,100,30.42,30.14,0,0,0,0.00
2014-3-4,0.0,0.0,0.0,0.0,0.0,0.0,0,0,100,30.27,30.13,0,0,0,0.00
2014-3-5,0.0,0.0,0.0,0.0,0.0,0.0,0,0,100,30.30,30.04,0,0,0,0.00
2014-3-6,0.0,0.0,0.0,0.0,0.0,0.0,0,0,100,30.04,29.72,0,0,0,0.00
2014-3-7,0.0,0.0,0.0,0.0,0.0,0.0,0,0,100,30.26,29.76,0,0,0,0.00
2014-3-8,0.0,0.0,0.0,0.0,0.0,0.0,0,0,100,30.28,29.92,0,0,0,0.00
2014-3-9,0.0,0.0,0.0,0.0,0.0,0.0,0,0,100,29.92,29.64,0,0,0,0.00
2014-3-10,0.0,0.0,0.0,0.0,0.0,0.0,0,0,100,29.79,29.63,0,0,0,0.00
2014-3-11,0.0,0.0,0.0,0.0,0.0,0.0,0,0,100,30.14,29.79,0,0,0,0.00
2014-3-12,0.0,0.0,0.0,0.0,0.0,0.0,0,0,100,30.13,29.84,0,0,0,0.00
2014-3-13,0.0,0.0,0.0,0.0,0.0,0.0,0,0,100,29.84,29.55,0,0,0,0.00
2014-3-14,0.0,0.0,0.0,0.0,0.0,0.0,0,0,100,30.02,29.63,0,0,0,0.00
2014-3-15,0.0,0.0,0.0,0.0,0.0,0.0,0,0,100,30.41,30.02,0,0,0,0.00
2014-3-16,0.0,0.0,0.0,0.0,0.0,0.0,0,0,100,30.42,29.72,0,0,0,0.00
2014-3-17,0.0,0.0,0.0,0.0,0.0,0.0,0,0,100,29.71,29.55,0,0,0,0.00
2014-3-18,0.0,0.0,0.0,0.0,0.0,0.0,0,0,100,29.94,29.71,0,0,0,0.00
2014-3-19,0.0,0.0,0.0,0.0,0.0,0.0,0,0,100,29.96,29.91,0,0,0,0.00
2014-3-20,0.0,0.0,0.0,0.0,0.0,0.0,0,0,100,29.95,29.75,0,0,0,0.00
2014-3-21,0.0,0.0,0.0,0.0,0.0,0.0,0,0,100,30.32,29.71,0,0,0,0.00
2014-3-22,0.0,0.0,0.0,0.0,0.0,0.0,0,0,100,30.42,30.33,0,0,0,0.00
2014-3-23,0.0,0.0,0.0,0.0,0.0,0.0,0,0,100,30.41,30.25,0,0,0,0.00
2014-3-24,0.0,0.0,0.0,0.0,0.0,0.0,0,0,100,30.25,30.12,0,0,0,0.00
2014-3-25,0.0,0.0,0.0,0.0,0.0,0.0,0,0,100,30.25,30.01,0,0,0,0.00
2014-3-26,0.0,0.0,0.0,0.0,0.0,0.0,0,0,100,30.01,29.58,0,0,0,0.00
2014-3-27,0.0,0.0,0.0,0.0,0.0,0.0,0,0,100,29.98,29.58,0,0,0,0.00
2014-3-28,0.0,0.0,0.0,0.0,0.0,0.0,0,0,100,30.18,29.98,0,0,0,0.00
2014-3-29,0.0,0.0,0.0,0.0,0.0,0.0,0,0,100,30.17,29.78,0,0,0,0.00
2014-3-30,0.0,0.0,0.0,0.0,0.0,0.0,0,0,100,29.87,29.75,0,0,0,0.00
2014-3-31,0.0,0.0,0.0,0.0,0.0,0.0,0,0,100,29.86,29.68,0,0,0,0.00
2014-4-1,0.0,0.0,0.0,0.0,0.0,0.0,0,0,100,30.14,29.86,0,0,0,0.00
2014-4-2,0.0,0.0,0.0,0.0,0.0,0.0,0,0,100,30.17,30.05,0,0,0,0.00
2014-4-3,0.0,0.0,0.0,0.0,0.0,0.0,0,0,100,30.05,29.94,0,0,0,0.00
2014-4-4,0.0,0.0,0.0,0.0,0.0,0.0,0,0,100,30.03,29.95,0,0,0,0.00
2014-4-5,0.0,0.0,0.0,0.0,0.0,0.0,0,0,100,29.99,29.81,0,0,0,0.00
2014-4-6,0.0,0.0,0.0,0.0,0.0,0.0,0,0,100,29.86,29.76,0,0,0,0.00
2014-4-7,0.0,0.0,0.0,0.0,0.0,0.0,0,0,100,29.94,29.81,0,0,0,0.00
2014-4-8,0.0,0.0,0.0,0.0,0.0,0.0,0,0,100,30.05,29.82,0,0,0,0.00
2014-4-9,0.0,0.0,0.0,0.0,0.0,0.0,0,0,100,29.82,29.48,0,0,0,0.00
2014-4-10,0.0,0.0,0.0,0.0,0.0,0.0,0,0,100,29.89,29.71,0,0,0,0.00
2014-4-11,0.0,0.0,0.0,0.0,0.0,0.0,0,0,100,29.92,29.86,0,0,0,0.00
2014-4-12,0.0,0.0,0.0,0.0,0.0,0.0,0,0,100,29.90,29.72,0,0,0,0.00
2014-4-13,0.0,0.0,0.0,0.0,0.0,0.0,0,0,100,30.14,29.87,0,0,0,0.00
2014-4-14,0.0,0.0,0.0,0.0,0.0,0.0,0,0,100,30.17,30.12,0,0,0,0.00
2014-4-15,0.0,0.0,0.0,0.0,0.0,0.0,0,0,100,30.16,29.95,0,0,0,0.00
2014-4-16,0.0,0.0,0.0,0.0,0.0,0.0,0,0,100,30.17,29.94,0,0,0,0.00
2014-4-17,0.0,0.0,0.0,0.0,0.0,0.0,0,0,100,30.27,30.18,0,0,0,0.00
2014-4-18,0.0,0.0,0.0,0.0,0.0,0.0,0,0,100,30.21,29.84,0,0,0,0.00
2014-4-19,0.0,0.0,0.0,0.0,0.0,0.0,0,0,100,29.98,29.75,0,0,0,0.00
2014-4-20,0.0,0.0,0.0,0.0,0.0,0.0,0,0,100,30.00,29.85,0,0,0,0.00
2014-4-21,0.0,0.0,0.0,0.0,0.0,0.0,0,0,100,30.08,29.90,0,0,0,0.00
2014-4-22,0.0,0.0,0.0,0.0,0.0,0.0,0,0,100,30.08,29.94,0,0,0,0.00
2014-4-23,0.0,0.0,0.0,0.0,0.0,0.0,0,0,100,29.94,29.80,0,0,0,0.00
2014-4-24,0.0,0.0,0.0,0.0,0.0,0.0,0,0,100,29.81,29.69,0,0,0,0.00
2014-4-25,0.0,0.0,0.0,0.0,0.0,0.0,0,0,100,29.92,29.74,0,0,0,0.00
2014-4-26,0.0,0.0,0.0,0.0,0.0,0.0,0,0,100,29.95,29.83,0,0,0,0.00
2014-4-27,0.0,0.0,0.0,0.0,0.0,0.0,0,0,100,29.85,29.68,0,0,0,0.00
2014-4-28,0.0,0.0,0.0,0.0,0.0,0.0,0,0,100,29.89,29.66,0,0,0,0.00
2014-4-29,0.0,0.0,0.0,0.0,0.0,0.0,0,0,100,29.94,29.89,0,0,0,0.00
2014-4-30,0.0,0.0,0.0,0.0,0.0,0.0,0,0,100,29.95,29.92,0,0,0,0.00
2014-5-1,0.0,0.0,0.0,0.0,0.0,0.0,0,0,100,29.92,29.80,0,0,0,0.00
2014-5-2,0.0,0.0,0.0,0.0,0.0,0.0,0,0,100,29.80,29.62,0,0,0,0.00
2014-5-3,0.0,0.0,0.0,0.0,0.0,0.0,0,0,100,30.02,29.79,0,0,0,0.00
2014-5-4,0.0,0.0,0.0,0.0,0.0,0.0,0,0,100,30.10,29.97,0,0,0,0.00
2014-5-5,0.0,0.0,0.0,0.0,0.0,0.0,0,0,100,30.02,29.90,0,0,0,0.00
2014-5-6,0.0,0.0,0.0,0.0,0.0,0.0,0,0,100,29.91,29.78,0,0,0,0.00
2014-5-7,0.0,0.0,0.0,0.0,0.0,0.0,0,0,100,29.81,29.73,0,0,0,0.00
2014-5-8,0.0,0.0,0.0,0.0,0.0,0.0,0,0,100,29.83,29.69,0,0,0,0.00
2014-5-9,0.0,0.0,0.0,0.0,0.0,0.0,0,0,100,29.78,29.67,0,0,0,0.00
2014-5-10,0.0,0.0,0.0,0.0,0.0,0.0,0,0,100,29.81,29.69,0,0,0,0.00
2014-5-11,0.0,0.0,0.0,0.0,0.0,0.0,0,0,100,29.94,29.73,0,0,0,0.00
2014-5-12,0.0,0.0,0.0,0.0,0.0,0.0,0,0,100,29.95,29.88,0,0,0,0.00
2014-5-13,0.0,0.0,0.0,0.0,0.0,0.0,0,0,100,30.12,29.93,0,0,0,0.00
2014-5-14,0.0,0.0,0.0,0.0,0.0,0.0,0,0,100,30.23,30.12,0,0,0,0.00
2014-5-15,0.0,0.0,0.0,0.0,0.0,0.0,0,0,100,30.23,30.09,0,0,0,0.00
2014-5-16,0.0,0.0,0.0,0.0,0.0,0.0,0,0,100,30.09,29.98,0,0,0,0.00
2014-5-17,0.0,0.0,0.0,0.0,0.0,0.0,0,0,100,29.99,29.90,0,0,0,0.00
2014-5-18,0.0,0.0,0.0,0.0,0.0,0.0,0,0,100,29.94,29.81,0,0,0,0.00
2014-5-19,0.0,0.0,0.0,0.0,0.0,0.0,0,0,100,29.82,29.65,0,0,0,0.00
2014-5-20,0.0,0.0,0.0,0.0,0.0,0.0,0,0,100,29.91,29.73,0,0,0,0.00
2014-5-21,0.0,0.0,0.0,0.0,0.0,0.0,0,0,100,30.12,29.92,0,0,0,0.00
2014-5-22,0.0,0.0,0.0,0.0,0.0,0.0,0,0,100,30.16,30.08,0,0,0,0.00
2014-5-23,0.0,0.0,0.0,0.0,0.0,0.0,0,0,100,30.10,29.95,0,0,0,0.00
2014-5-24,0.0,0.0,0.0,0.0,0.0,0.0,0,0,100,29.96,29.87,0,0,0,0.00
2014-5-25,0.0,0.0,0.0,0.0,0.0,0.0,0,0,100,29.91,29.79,0,0,0,0.00
2014-5-26,0.0,0.0,0.0,0.0,0.0,0.0,0,0,100,29.94,29.85,0,0,0,0.00
2014-5-27,0.0,0.0,0.0,0.0,0.0,0.0,0,0,100,29.93,29.87,0,0,0,0.00
2014-5-28,0.0,0.0,0.0,0.0,0.0,0.0,0,0,100,30.00,29.93,0,0,0,0.00
2014-5-29,0.0,0.0,0.0,0.0,0.0,0.0,0,0,100,30.01,29.90,0,0,0,0.00
2014-5-30,0.0,0.0,0.0,0.0,0.0,0.0,0,0,100,29.99,29.90,0,0,0,0.00
2014-5-31,0.0,0.0,0.0,0.0,0.0,0.0,0,0,100,29.87,29.83,0,0,0,0.00
2014-6-1,0.0,0.0,0.0,0.0,0.0,0.0,0,0,100,29.84,29.70,0,0,0,0.00
2014-6-2,0.0,0.0,0.0,0.0,0.0,0.0,0,0,100,29.89,29.67,0,0,0,0.00
2014-6-3,0.0,0.0,0.0,0.0,0.0,0.0,0,0,100,29.92,29.79,0,0,0,0.00
2014-6-4,0.0,0.0,0.0,0.0,0.0,0.0,0,0,100,29.89,29.80,0,0,0,0.00
2014-6-5,0.0,0.0,0.0,0.0,0.0,0.0,0,0,100,29.83,29.76,0,0,0,0.00
2014-6-6,0.0,0.0,0.0,0.0,0.0,0.0,0,0,100,30.04,29.82,0,0,0,0.00
2014-6-7,0.0,0.0,0.0,0.0,0.0,0.0,0,0,100,30.06,30.00,0,0,0,0.00
2014-6-8,0.0,0.0,0.0,0.0,0.0,0.0,0,0,100,30.04,29.96,0,0,0,0.00
2014-6-9,0.0,0.0,0.0,0.0,0.0,0.0,0,0,100,29.98,29.88,0,0,0,0.00
2014-6-10,0.0,0.0,0.0,0.0,0.0,0.0,0,0,100,29.90,29.79,0,0,0,0.00
2014-6-11,0.0,0.0,0.0,0.0,0.0,0.0,0,0,100,29.84,29.73,0,0,0,0.00
2014-6-12,0.0,0.0,0.0,0.0,0.0,0.0,0,0,100,29.95,29.83,0,0,0,0.00
2014-6-13,0.0,0.0,0.0,0.0,0.0,0.0,0,0,100,29.97,29.76,0,0,0,0.00
2014-6-14,0.0,0.0,0.0,0.0,0.0,0.0,0,0,100,29.82,29.55,0,0,0,0.00
2014-6-15,0.0,0.0,0.0,0.0,0.0,0.0,0,0,100,29.73,29.54,0,0,0,0.00
2014-6-16,0.0,0.0,0.0,0.0,0.0,0.0,0,0,100,29.81,29.70,0,0,0,0.00
2014-6-17,0.0,0.0,0.0,0.0,0.0,0.0,0,0,100,29.86,29.74,0,0,0,0.00
2014-6-18,0.0,0.0,0.0,0.0,0.0,0.0,0,0,100,29.89,29.81,0,0,0,0.00
2014-6-19,0.0,0.0,0.0,0.0,0.0,0.0,0,0,100,29.90,29.71,0,0,0,0.00
2014-6-20,0.0,0.0,0.0,0.0,0.0,0.0,0,0,100,29.89,29.81,0,0,0,0.00
2014-6-21,0.0,0.0,0.0,0.0,0.0,0.0,0,0,100,29.85,29.76,0,0,0,0.00
2014-6-22,0.0,0.0,0.0,0.0,0.0,0.0,0,0,100,29.85,29.80,0,0,0,0.00
2014-6-23,0.0,0.0,0.0,0.0,0.0,0.0,0,0,100,29.87,29.83,0,0,0,0.00
2014-6-24,0.0,0.0,0.0,0.0,0.0,0.0,0,0,100,29.98,29.95,0,0,0,0.00
2014-6-25,0.0,0.0,0.0,0.0,0.0,0.0,0,0,100,30.01,29.95,0,0,0,0.00
2014-6-26,0.0,0.0,0.0,0.0,0.0,0.0,0,0,100,29.97,29.76,0,0,0,0.00
2014-6-27,0.0,0.0,0.0,0.0,0.0,0.0,0,0,100,29.77,29.64,0,0,0,0.00
2014-6-28,0.0,0.0,0.0,0.0,0.0,0.0,0,0,100,29.66,29.53,0,0,0,0.00
2014-6-29,0.0,0.0,0.0,0.0,0.0,0.0,0,0,100,29.63,29.56,0,0,0,0.00
2014-6-30,0.0,0.0,0.0,0.0,0.0,0.0,0,0,100,29.58,29.50,0,0,0,0.00
2014-7-1,0.0,0.0,0.0,0.0,0.0,0.0,0,0,100,29.97,29.54,0,0,0,0.00
2014-7-2,0.0,0.0,0.0,0.0,0.0,0.0,0,0,100,30.08,29.97,0,0,0,0.00
2014-7-3,0.0,0.0,0.0,0.0,0.0,0.0,0,0,100,30.13,30.08,0,0,0,0.00
2014-7-4,0.0,0.0,0.0,0.0,0.0,0.0,0,0,100,30.10,29.89,0,0,0,0.00
2014-7-5,0.0,0.0,0.0,0.0,0.0,0.0,0,0,100,29.89,29.69,0,0,0,0.00
2014-7-6,0.0,0.0,0.0,0.0,0.0,0.0,0,0,100,29.80,29.70,0,0,0,0.00
2014-7-7,0.0,0.0,0.0,0.0,0.0,0.0,0,0,100,29.77,29.72,0,0,0,0.00
2014-7-8,0.0,0.0,0.0,0.0,0.0,0.0,0,0,100,29.92,29.76,0,0,0,0.00
2014-7-9,0.0,0.0,0.0,0.0,0.0,0.0,0,0,100,30.00,29.91,0,0,0,0.00
2014-7-10,0.0,0.0,0.0,0.0,0.0,0.0,0,0,100,29.95,29.82,0,0,0,0.00
2014-7-11,0.0,0.0,0.0,0.0,0.0,0.0,0,0,100,29.99,29.78,0,0,0,0.00
2014-7-12,0.0,0.0,0.0,0.0,0.0,0.0,0,0,100,30.01,29.89,0,0,0,0.00
2014-7-13,0.0,0.0,0.0,0.0,0.0,0.0,0,0,100,29.95,29.89,0,0,0,0.00
2014-7-14,0.0,0.0,0.0,0.0,0.0,0.0,0,0,100,30.09,29.93,0,0,0,0.00
2014-7-15,0.0,0.0,0.0,0.0,0.0,0.0,0,0,100,30.11,30.01,0,0,0,0.00
2014-7-16,0.0,0.0,0.0,0.0,0.0,0.0,0,0,100,30.03,29.93,0,0,0,0.00
2014-7-17,0.0,0.0,0.0,0.0,0.0,0.0,0,0,100,29.94,29.86,0,0,0,0.00
2014-7-18,0.0,0.0,0.0,0.0,0.0,0.0,0,0,100,29.87,29.75,0,0,0,0.00
2014-7-19,0.0,0.0,0.0,0.0,0.0,0.0,0,0,100,29.85,29.78,0,0,0,0.00
2014-7-20,0.0,0.0,0.0,0.0,0.0,0.0,0,0,100,29.78,29.67,0,0,0,0.00
2014-7-21,0.0,0.0,0.0,0.0,0.0,0.0,0,0,100,29.80,29.67,0,0,0,0.00
2014-7-22,0.0,0.0,0.0,0.0,0.0,0.0,0,0,100,30.17,29.77,0,0,0,0.00
2014-7-23,0.0,0.0,0.0,0.0,0.0,0.0,0,0,100,30.21,30.10,0,0,0,0.00
2014-7-24,0.0,0.0,0.0,0.0,0.0,0.0,0,0,100,30.10,29.72,0,0,0,0.00
2014-7-25,0.0,0.0,0.0,0.0,0.0,0.0,0,0,100,29.81,29.73,0,0,0,0.00
2014-7-26,0.0,0.0,0.0,0.0,0.0,0.0,0,0,100,29.81,29.77,0,0,0,0.00
2014-7-27,0.0,0.0,0.0,0.0,0.0,0.0,0,0,100,30.13,29.81,0,0,0,0.00
2014-7-28,0.0,0.0,0.0,0.0,0.0,0.0,0,0,100,30.19,30.11,0,0,0,0.00
2014-7-29,0.0,0.0,0.0,0.0,0.0,0.0,0,0,100,30.12,30.03,0,0,0,0.00
2014-7-30,0.0,0.0,0.0,0.0,0.0,0.0,0,0,100,30.08,30.00,0,0,0,0.00
2014-7-31,0.0,0.0,0.0,0.0,0.0,0.0,0,0,100,30.01,29.96,0,0,0,0.00
2014-8-1,0.0,0.0,0.0,0.0,0.0,0.0,0,0,100,30.03,29.98,0,0,0,0.00
2014-8-2,0.0,0.0,0.0,0.0,0.0,0.0,0,0,100,30.05,30.00,0,0,0,0.00
2014-8-3,0.0,0.0,0.0,0.0,0.0,0.0,0,0,100,30.08,30.03,0,0,0,0.00
2014-8-4,0.0,0.0,0.0,0.0,0.0,0.0,0,0,100,30.10,30.04,0,0,0,0.00
2014-8-5,0.0,0.0,0.0,0.0,0.0,0.0,0,0,100,30.09,30.03,0,0,0,0.00
2014-8-6,0.0,0.0,0.0,0.0,0.0,0.0,0,0,100,30.05,29.99,0,0,0,0.00
2014-8-7,0.0,0.0,0.0,0.0,0.0,0.0,0,0,100,30.01,29.94,0,0,0,0.00
2014-8-8,0.0,0.0,0.0,0.0,0.0,0.0,0,0,100,30.01,29.96,0,0,0,0.00
2014-8-9,0.0,0.0,0.0,0.0,0.0,0.0,0,0,100,30.02,29.97,0,0,0,0.00
2014-8-10,0.0,0.0,0.0,0.0,0.0,0.0,0,0,100,30.07,29.98,0,0,0,0.00
2014-8-11,0.0,0.0,0.0,0.0,0.0,0.0,0,0,100,30.12,30.06,0,0,0,0.00
2014-8-12,0.0,0.0,0.0,0.0,0.0,0.0,0,0,100,30.08,29.96,0,0,0,0.00
2014-8-13,0.0,0.0,0.0,0.0,0.0,0.0,0,0,100,30.05,29.99,0,0,0,0.00
2014-8-14,0.0,0.0,0.0,0.0,0.0,0.0,0,0,100,30.01,29.90,0,0,0,0.00
2014-8-15,0.0,0.0,0.0,0.0,0.0,0.0,0,0,100,29.90,29.81,0,0,0,0.00
2014-8-16,0.0,0.0,0.0,0.0,0.0,0.0,0,0,100,29.90,29.81,0,0,0,0.00
2014-8-17,0.0,0.0,0.0,0.0,0.0,0.0,0,0,100,29.92,29.82,0,0,0,0.00
2014-8-18,0.0,0.0,0.0,0.0,0.0,0.0,0,0,100,29.83,29.71,0,0,0,0.00
2014-8-19,0.0,0.0,0.0,0.0,0.0,0.0,0,0,100,29.78,29.73,0,0,0,0.00
2014-8-20,0.0,0.0,0.0,0.0,0.0,0.0,0,0,100,29.80,29.77,0,0,0,0.00
2014-8-21,0.0,0.0,0.0,0.0,0.0,0.0,0,0,100,29.86,29.68,0,0,0,0.00
2014-8-22,0.0,0.0,0.0,0.0,0.0,0.0,0,0,100,30.02,29.86,0,0,0,0.00
2014-8-23,0.0,0.0,0.0,0.0,0.0,0.0,0,0,100,30.03,29.77,0,0,0,0.00
2014-8-24,0.0,0.0,0.0,0.0,0.0,0.0,0,0,100,29.81,29.68,0,0,0,0.00
2014-8-25,0.0,0.0,0.0,0.0,0.0,0.0,0,0,100,30.06,29.80,0,0,0,0.00
2014-8-26,0.0,0.0,0.0,0.0,0.0,0.0,0,0,100,30.14,30.06,0,0,0,0.00
2014-8-27,0.0,0.0,0.0,0.0,0.0,0.0,0,0,100,30.13,30.01,0,0,0,0.00
2014-8-28,0.0,0.0,0.0,0.0,0.0,0.0,0,0,100,30.01,29.84,0,0,0,0.00
2014-8-29,0.0,0.0,0.0,0.0,0.0,0.0,0,0,100,29.86,29.76,0,0,0,0.00
2014-8-30,0.0,0.0,0.0,0.0,0.0,0.0,0,0,100,29.91,29.78,0,0,0,0.00
2014-8-31,0.0,0.0,0.0,0.0,0.0,0.0,0,0,100,29.80,29.60,0,0,0,0.00
2014-9-2,0.0,0.0,0.0,0.0,0.0,0.0,0,0,100,29.84,29.74,0,0,0,0.00
2014-9-3,0.0,0.0,0.0,0.0,0.0,0.0,0,0,100,29.76,29.68,0,0,0,0.00
2014-9-4,0.0,0.0,0.0,0.0,0.0,0.0,0,0,100,29.96,29.56,0,0,0,0.00
2014-9-5,0.0,0.0,0.0,0.0,0.0,0.0,0,0,100,30.12,29.96,0,0,0,0.00
2014-9-6,0.0,0.0,0.0,0.0,0.0,0.0,0,0,100,30.11,29.99,0,0,0,0.00
2014-9-7,0.0,0.0,0.0,0.0,0.0,0.0,0,0,100,29.99,29.81,0,0,0,0.00
2014-9-8,0.0,0.0,0.0,0.0,0.0,0.0,0,0,100,29.81,29.69,0,0,0,0.00
2014-9-9,0.0,0.0,0.0,0.0,0.0,0.0,0,0,100,29.95,29.81,0,0,0,0.00
2014-9-10,0.0,0.0,0.0,0.0,0.0,0.0,0,0,100,30.15,29.94,0,0,0,0.00
2014-9-11,0.0,0.0,0.0,0.0,0.0,0.0,0,0,100,30.32,30.14,0,0,0,0.00
2014-9-12,0.0,0.0,0.0,0.0,0.0,0.0,0,0,100,30.36,30.21,0,0,0,0.00
2014-9-13,0.0,0.0,0.0,0.0,0.0,0.0,0,0,100,30.21,29.94,0,0,0,0.00
2014-9-14,0.0,0.0,0.0,0.0,0.0,0.0,0,0,100,30.10,29.98,0,0,0,0.00
2014-9-15,0.0,0.0,0.0,0.0,0.0,0.0,0,0,100,30.18,30.07,0,0,0,0.00
2014-9-16,0.0,0.0,0.0,0.0,0.0,0.0,0,0,100,30.07,29.89,0,0,0,0.00
2014-9-17,0.0,0.0,0.0,0.0,0.0,0.0,0,0,100,29.98,29.88,0,0,0,0.00
2014-9-18,0.0,0.0,0.0,0.0,0.0,0.0,0,0,100,29.98,29.76,0,0,0,0.00
2014-9-19,0.0,0.0,0.0,0.0,0.0,0.0,0,0,100,29.77,29.60,0,0,0,0.00
2014-9-20,0.0,0.0,0.0,0.0,0.0,0.0,0,0,100,29.95,29.72,0,0,0,0.00
2014-9-21,0.0,0.0,0.0,0.0,0.0,0.0,0,0,100,30.16,29.95,0,0,0,0.00
2014-9-22,0.0,0.0,0.0,0.0,0.0,0.0,0,0,100,30.13,30.00,0,0,0,0.00
2014-9-23,0.0,0.0,0.0,0.0,0.0,0.0,0,0,100,30.01,29.98,0,0,0,0.00
2014-9-24,0.0,0.0,0.0,0.0,0.0,0.0,0,0,100,30.03,29.95,0,0,0,0.00
2014-9-25,0.0,0.0,0.0,0.0,0.0,0.0,0,0,100,30.07,29.99,0,0,0,0.00
2014-9-26,0.0,0.0,0.0,0.0,0.0,0.0,0,0,100,30.01,29.94,0,0,0,0.00
2014-9-27,0.0,0.0,0.0,0.0,0.0,0.0,0,0,100,29.98,29.92,0,0,0,0.00
2014-9-28,0.0,0.0,0.0,0.0,0.0,0.0,0,0,100,30.12,29.98,0,0,0,0.00
2014-9-29,0.0,0.0,0.0,0.0,0.0,0.0,0,0,100,30.14,30.01,0,0,0,0.00
2014-9-30,0.0,0.0,0.0,0.0,0.0,0.0,0,0,100,30.01,29.63,0,0,0,0.00
2014-10-1,0.0,0.0,0.0,0.0,0.0,0.0,0,0,100,29.80,29.62,0,0,0,0.00
2014-10-2,0.0,0.0,0.0,0.0,0.0,0.0,0,0,100,29.85,29.74,0,0,0,0.00
2014-10-3,0.0,0.0,0.0,0.0,0.0,0.0,0,0,100,29.94,29.85,0,0,0,0.00
2014-10-4,0.0,0.0,0.0,0.0,0.0,0.0,0,0,100,29.92,29.71,0,0,0,0.00
2014-10-5,0.0,0.0,0.0,0.0,0.0,0.0,0,0,100,29.71,29.59,0,0,0,0.00
2014-10-6,0.0,0.0,0.0,0.0,0.0,0.0,0,0,100,29.60,29.44,0,0,0,0.00
2014-10-7,0.0,0.0,0.0,0.0,0.0,0.0,0,0,100,29.86,29.52,0,0,0,0.00
2014-10-8,0.0,0.0,0.0,0.0,0.0,0.0,0,0,100,30.09,29.86,0,0,0,0.00
2014-10-9,0.0,0.0,0.0,0.0,0.0,0.0,0,0,100,30.19,30.09,0,0,0,0.00
2014-10-10,0.0,0.0,0.0,0.0,0.0,0.0,0,0,100,30.22,30.10,0,0,0,0.00
2014-10-11,0.0,0.0,0.0,0.0,0.0,0.0,0,0,100,30.10,29.76,0,0,0,0.00
2014-10-12,0.0,0.0,0.0,0.0,0.0,0.0,0,0,100,29.75,29.65,0,0,0,0.00
2014-10-13,0.0,0.0,0.0,0.0,0.0,0.0,0,0,100,29.91,29.75,0,0,0,0.00
2014-10-14,0.0,0.0,0.0,0.0,0.0,0.0,0,0,100,29.99,29.91,0,0,0,0.00
2014-10-15,0.0,0.0,0.0,0.0,0.0,0.0,0,0,100,29.96,29.71,0,0,0,0.00
2014-10-16,0.0,0.0,0.0,0.0,0.0,0.0,0,0,100,29.73,29.55,0,0,0,0.00
2014-10-17,0.0,0.0,0.0,0.0,0.0,0.0,0,0,100,30.14,29.73,0,0,0,0.00
2014-10-18,0.0,0.0,0.0,0.0,0.0,0.0,0,0,100,30.16,29.91,0,0,0,0.00
2014-10-19,0.0,0.0,0.0,0.0,0.0,0.0,0,0,100,29.91,29.80,0,0,0,0.00
2014-10-20,0.0,0.0,0.0,0.0,0.0,0.0,0,0,100,30.03,29.91,0,0,0,0.00
2014-10-21,0.0,0.0,0.0,0.0,0.0,0.0,0,0,100,30.02,29.88,0,0,0,0.00
2014-10-22,0.0,0.0,0.0,0.0,0.0,0.0,0,0,100,29.89,29.83,0,0,0,0.00
2014-10-23,0.0,0.0,0.0,0.0,0.0,0.0,0,0,100,29.91,29.81,0,0,0,0.00
2014-10-24,0.0,0.0,0.0,0.0,0.0,0.0,0,0,100,29.93,29.77,0,0,0,0.00
2014-10-25,0.0,0.0,0.0,0.0,0.0,0.0,0,0,100,30.06,29.93,0,0,0,0.00
2014-10-26,0.0,0.0,0.0,0.0,0.0,0.0,0,0,100,29.96,29.57,0,0,0,0.00
2014-10-27,0.0,0.0,0.0,0.0,0.0,0.0,0,0,100,29.71,29.57,0,0,0,0.00
2014-10-28,0.0,0.0,0.0,0.0,0.0,0.0,0,0,100,30.05,29.70,0,0,0,0.00
2014-10-29,0.0,0.0,0.0,0.0,0.0,0.0,0,0,100,30.10,29.96,0,0,0,0.00
2014-10-30,0.0,0.0,0.0,0.0,0.0,0.0,0,0,100,30.44,29.96,0,0,0,0.00
2014-10-31,0.0,0.0,0.0,0.0,0.0,0.0,0,0,100,30.50,30.24,0,0,0,0.00
2014-11-1,0.0,0.0,0.0,0.0,0.0,0.0,0,0,100,30.24,29.89,0,0,0,0.00
2014-11-2,0.0,0.0,0.0,0.0,0.0,0.0,0,0,100,29.89,29.75,0,0,0,0.00
2014-11-3,0.0,0.0,0.0,0.0,0.0,0.0,0,0,100,29.87,29.74,0,0,0,0.00
2014-11-4,0.0,0.0,0.0,0.0,0.0,0.0,0,0,100,29.95,29.86,0,0,0,0.00
2014-11-5,0.0,0.0,0.0,0.0,0.0,0.0,0,0,100,30.15,29.91,0,0,0,0.00
2014-11-6,0.0,0.0,0.0,0.0,0.0,0.0,0,0,100,30.23,30.01,0,0,0,0.00
2014-11-7,0.0,0.0,0.0,0.0,0.0,0.0,0,0,100,30.01,29.63,0,0,0,0.00
2014-11-8,0.0,0.0,0.0,0.0,0.0,0.0,0,0,100,30.06,29.80,0,0,0,0.00
2014-11-9,0.0,0.0,0.0,0.0,0.0,0.0,0,0,100,29.87,29.80,0,0,0,0.00
2014-11-10,0.0,0.0,0.0,0.0,0.0,0.0,0,0,100,30.14,29.83,0,0,0,0.00
2014-11-11,0.0,0.0,0.0,0.0,0.0,0.0,0,0,100,30.26,30.14,0,0,0,0.00
2014-11-12,0.0,0.0,0.0,0.0,0.0,0.0,0,0,100,30.37,30.26,0,0,0,0.00
2014-11-13,0.0,0.0,0.0,0.0,0.0,0.0,0,0,100,30.40,30.31,0,0,0,0.00
2014-11-14,0.0,0.0,0.0,0.0,0.0,0.0,0,0,100,30.31,30.22,0,0,0,0.00
2014-11-15,0.0,0.0,0.0,0.0,0.0,0.0,0,0,100,30.22,30.05,0,0,0,0.00
2014-11-16,0.0,0.0,0.0,0.0,0.0,0.0,0,0,100,30.05,29.81,0,0,0,0.00
2014-11-17,0.0,0.0,0.0,0.0,0.0,0.0,0,0,100,30.07,30.00,0,0,0,0.00
2014-11-18,0.0,0.0,0.0,0.0,0.0,0.0,0,0,100,30.03,29.73,0,0,0,0.00
2014-11-19,0.0,0.0,0.0,0.0,0.0,0.0,0,0,100,30.03,29.80,0,0,0,0.00
2014-11-20,0.0,0.0,0.0,0.0,0.0,0.0,0,0,100,30.13,30.03,0,0,0,0.00
2014-11-21,0.0,0.0,0.0,0.0,0.0,0.0,0,0,100,30.07,29.72,0,0,0,0.00
2014-11-22,0.0,0.0,0.0,0.0,0.0,0.0,0,0,100,29.73,29.46,0,0,0,0.00
2014-11-23,0.0,0.0,0.0,0.0,0.0,0.0,0,0,100,29.65,29.46,0,0,0,0.00
2014-11-24,0.0,0.0,0.0,0.0,0.0,0.0,0,0,100,30.00,29.64,0,0,0,0.00
2014-11-25,0.0,0.0,0.0,0.0,0.0,0.0,0,0,100,30.04,29.91,0,0,0,0.00
2014-11-26,0.0,0.0,0.0,0.0,0.0,0.0,0,0,100,30.46,30.05,0,0,0,0.00
2014-11-27,0.0,0.0,0.0,0.0,0.0,0.0,0,0,100,30.46,30.05,0,0,0,0.00
2014-11-28,0.0,0.0,0.0,0.0,0.0,0.0,0,0,100,30.05,29.63,0,0,0,0.00
2014-11-29,0.0,0.0,0.0,0.0,0.0,0.0,0,0,100,29.90,29.48,0,0,0,0.00
2014-11-30,0.0,0.0,0.0,0.0,0.0,0.0,0,0,100,30.49,29.90,0,0,0,0.00
2014-12-1,0.0,0.0,0.0,0.0,0.0,0.0,0,0,100,30.58,30.02,0,0,0,0.00
2014-12-2,0.0,0.0,0.0,0.0,0.0,0.0,0,0,100,30.02,29.91,0,0,0,0.00
2014-12-3,0.0,0.0,0.0,0.0,0.0,0.0,0,0,100,30.21,30.00,0,0,0,0.00
2014-12-4,0.0,0.0,0.0,0.0,0.0,0.0,0,0,100,30.15,29.94,0,0,0,0.00
2014-12-5,0.0,0.0,0.0,0.0,0.0,0.0,0,0,100,30.42,29.96,0,0,0,0.00
2014-12-6,0.0,0.0,0.0,0.0,0.0,0.0,0,0,100,30.50,30.22,0,0,0,0.00
2014-12-7,0.0,0.0,0.0,0.0,0.0,0.0,0,0,100,30.22,29.92,0,0,0,0.00
2014-12-8,0.0,0.0,0.0,0.0,0.0,0.0,0,0,100,30.36,29.96,0,0,0,0.00
2014-12-9,0.0,0.0,0.0,0.0,0.0,0.0,0,0,100,30.37,30.20,0,0,0,0.00
2014-12-10,0.0,0.0,0.0,0.0,0.0,0.0,0,0,100,30.20,30.08,0,0,0,0.00
2014-12-11,0.0,0.0,0.0,0.0,0.0,0.0,0,0,100,30.10,30.03,0,0,0,0.00
2014-12-12,0.0,0.0,0.0,0.0,0.0,0.0,0,0,100,30.04,29.91,0,0,0,0.00
2014-12-13,0.0,0.0,0.0,0.0,0.0,0.0,0,0,100,29.91,29.79,0,0,0,0.00
2014-12-14,0.0,0.0,0.0,0.0,0.0,0.0,0,0,100,29.84,29.74,0,0,0,0.00
2014-12-15,0.0,0.0,0.0,0.0,0.0,0.0,0,0,100,30.17,29.84,0,0,0,0.00
2014-12-16,0.0,0.0,0.0,0.0,0.0,0.0,0,0,100,30.30,30.17,0,0,0,0.00
2014-12-17,0.0,0.0,0.0,0.0,0.0,0.0,0,0,100,30.31,30.24,0,0,0,0.00
2014-12-18,0.0,0.0,0.0,0.0,0.0,0.0,0,0,100,30.24,30.12,0,0,0,0.00
2014-12-19,0.0,0.0,0.0,0.0,0.0,0.0,0,0,100,30.12,29.99,0,0,0,0.00
2014-12-20,0.0,0.0,0.0,0.0,0.0,0.0,0,0,100,30.02,29.89,0,0,0,0.00
2014-12-21,0.0,0.0,0.0,0.0,0.0,0.0,0,0,100,29.89,29.60,0,0,0,0.00
2014-12-22,0.0,0.0,0.0,0.0,0.0,0.0,0,0,100,29.76,29.57,0,0,0,0.00
2014-12-23,0.0,0.0,0.0,0.0,0.0,0.0,0,0,100,29.99,29.76,0,0,0,0.00
2014-12-24,0.0,0.0,0.0,0.0,0.0,0.0,0,0,100,29.96,29.55,0,0,0,0.00
2014-12-25,0.0,0.0,0.0,0.0,0.0,0.0,0,0,100,29.99,29.56,0,0,0,0.00
2014-12-26,0.0,0.0,0.0,0.0,0.0,0.0,0,0,100,30.18,29.99,0,0,0,0.00
2014-12-27,0.0,0.0,0.0,0.0,0.0,0.0,0,0,100,30.16,30.01,0,0,0,0.00
2014-12-28,0.0,0.0,0.0,0.0,0.0,0.0,0,0,100,30.42,30.03,0,0,0,0.00
2014-12-29,0.0,0.0,0.0,0.0,0.0,0.0,0,0,100,30.64,30.42,0,0,0,0.00
2014-12-30,0.0,0.0,0.0,0.0,0.0,0.0,0,0,100,30.70,30.36,0,0,0,0.00
2014-12-31,0.0,0.0,0.0,0.0,0.0,0.0,0,0,100,30.36,29.84,0,0,0,0.00
2015-1-1,0.0,0.0,0.0,0.0,0.0,0.0,0,0,100,30.13,29.80,0,0,0,0.00
2015-1-2,0.0,0.0,0.0,0.0,0.0,0.0,0,0,100,30.11,29.77,0,0,0,0.00